Theta_e
306 308 308 309 308 308 307 307 306 305 306 306 305 305 307 309 306 303 314 317 315 315 320 323 326 326 327 330 333 336 339 341 339 336 337 339 341 344 345 346 349 354 351 353 353 351 349 351 356 357 351 356 361 363 360 364 364 365 366 363 362 364 361 360 362 361 362 363 365 366 364 363 355 355 356 352 354 355 355 353 351 353 352 354 356 356 360
305 306 307 308 306 307 307 307 306 307 306 305 306 307 308 308 310 311 311 315 315 317 322 325 325 328 330 331 336 336 333 334 336 337 339 340 341 342 342 343 346 352 353 355 356 353 349 352 352 350 354 355 357 356 355 363 367 368 369 367 364 364 363 362 365 364 365 366 365 368 368 361 367 363 356 361 351 350 352 351 356 360 357 356 350 353 355
303 306 307 307 306 306 305 306 308 309 309 308 308 307 308 309 309 310 309 317 318 322 326 328 329 332 333 334 335 335 333 334 333 332 334 335 339 342 342 342 343 341 346 351 352 351 351 351 348 346 346 355 355 359 360 362 365 368 368 369 368 367 366 366 368 366 366 366 367 366 365 370 368 366 368 370 366 368 361 359 358 370 368 354 348 347 347
302 305 305 305 306 306 305 306 308 309 308 307 312 309 313 312 311 311 318 314 317 325 330 330 331 331 331 331 332 335 333 335 333 332 332 333 337 339 341 342 344 344 347 348 350 350 351 352 351 349 347 346 351 358 359 360 365 365 364 364 363 364 362 363 363 364 368 368 367 368 368 369 370 370 370 370 370 369 362 353 366 356 352 354 358 351 347
300 304 306 305 305 303 301 303 306 308 309 311 314 316 317 316 318 313 312 312 320 326 330 327 329 329 330 330 332 333 334 337 334 333 335 336 337 336 343 343 343 344 346 348 349 349 350 352 354 358 355 352 354 355 357 360 362 362 359 354 353 355 357 354 354 359 362 366 368 368 368 368 369 369 369 368 368 367 363 362 357 363 363 356 356 358 352
300 302 303 304 300 294 297 307 311 310 308 312 312 312 315 318 319 317 321 320 325 326 326 326 325 327 330 332 334 337 336 338 336 335 334 335 337 340 339 339 341 345 346 347 348 350 351 353 353 354 355 354 354 356 359 360 356 355 355 355 356 356 354 357 357 358 356 360 363 363 366 367 367 368 368 367 367 367 365 367 366 363 358 364 362 358 356
299 302 303 298 293 294 306 311 312 313 314 315 313 315 317 318 320 321 323 323 324 324 326 326 329 332 333 334 335 336 338 337 335 336 336 337 337 336 339 338 341 343 344 344 344 344 345 347 349 350 350 352 352 351 352 353 354 353 352 351 351 350 352 352 354 358 357 353 351 358 360 360 361 361 360 361 362 364 362 356 353 354 362 361 360 357 355
303 300 299 291 293 304 308 310 311 314 315 316 315 313 316 319 320 321 320 322 324 326 327 328 331 332 333 334 333 334 336 338 338 336 336 336 337 337 339 338 339 342 341 340 339 340 342 344 345 346 346 349 348 348 352 351 349 348 349 348 346 348 349 351 352 353 355 354 352 351 354 358 358 357 359 359 357 353 353 353 351 356 357 357 356 356 356
297 299 298 298 305 303 306 307 308 309 308 312 312 307 310 318 321 321 321 323 324 326 327 326 330 332 332 329 329 335 336 337 338 336 337 336 336 337 337 337 337 338 338 338 339 339 339 341 341 343 345 346 345 345 346 346 347 347 347 346 347 350 352 352 353 354 354 353 353 354 356 354 355 355 354 354 352 353 351 352 354 353 351 353 352 354 354
302 298 296 298 298 294 303 312 313 315 313 315 318 313 307 316 320 323 322 322 325 327 326 326 327 328 327 322 325 332 333 335 334 335 335 336 335 335 335 336 336 336 337 338 338 338 337 336 338 340 341 341 341 340 341 343 343 344 345 343 345 347 348 350 352 352 352 351 349 346 349 351 352 354 353 353 351 352 348 349 348 348 349 348 348 349 350
301 299 295 295 293 300 307 310 312 314 316 313 317 314 304 313 320 322 323 323 324 324 326 324 326 321 317 317 323 330 332 333 334 333 334 334 334 334 334 334 333 334 335 335 335 335 334 332 333 335 336 335 335 335 337 337 338 338 338 340 342 344 347 349 350 352 351 351 349 348 348 347 350 349 349 349 351 351 349 348 348 348 348 347 347 347 347
300 299 296 295 305 302 308 312 312 315 317 315 311 300 301 311 319 322 323 324 324 324 325 326 323 319 315 318 324 332 334 335 334 333 332 332 332 332 333 334 335 335 335 334 332 331 330 330 331 332 333 333 333 332 333 334 333 333 334 336 339 341 343 347 349 350 352 349 350 348 347 347 349 349 349 349 348 346 347 348 347 349 348 345 343 344 345
299 299 297 302 304 310 313 313 316 317 315 309 299 294 304 317 321 323 324 326 327 325 324 324 322 323 326 327 331 332 332 332 329 328 330 331 330 330 331 332 336 333 332 331 329 330 331 330 329 329 330 330 330 331 332 332 332 334 337 339 339 339 340 341 341 342 345 345 347 347 346 347 347 350 350 350 349 349 348 348 348 347 344 341 340 341 344
297 298 297 300 304 310 314 317 317 320 312 300 301 310 321 322 323 322 325 326 327 328 327 325 326 327 329 330 331 327 327 327 327 326 327 329 328 329 329 331 329 327 327 326 326 327 330 329 329 329 330 330 329 328 328 328 328 330 335 336 337 338 340 340 340 341 341 342 344 347 349 350 346 343 349 349 348 349 346 345 345 344 341 341 338 338 337
301 300 296 296 290 308 317 316 315 318 309 309 317 320 321 322 322 322 324 327 329 328 327 327 326 326 326 327 328 327 327 327 328 328 330 329 327 326 325 324 323 322 323 324 321 323 326 330 331 329 329 328 327 328 327 326 327 330 335 336 336 337 338 339 341 341 341 342 343 344 343 344 343 344 343 342 343 345 342 343 343 341 343 341 338 337 337
297 298 296 296 306 312 317 316 308 314 317 321 322 321 320 322 323 325 324 328 329 330 328 327 327 328 327 327 328 328 328 327 325 325 325 325 325 324 323 321 321 323 323 324 324 328 329 329 328 326 329 331 332 329 329 331 329 329 331 332 332 334 335 335 338 339 341 342 343 343 344 342 341 337 340 344 345 347 347 344 339 340 344 342 339 336 335
305 303 305 311 314 314 317 317 316 318 321 323 323 323 322 321 322 325 324 325 329 330 329 328 327 326 328 327 327 326 327 326 324 323 324 324 321 319 318 318 323 324 323 322 322 325 327 328 330 331 330 330 329 328 330 333 332 331 330 330 332 332 333 334 334 334 339 342 342 342 342 343 342 340 339 338 336 336 340 336 339 339 344 339 338 341 342
313 313 314 315 316 316 316 318 319 318 320 322 323 323 322 322 324 325 325 327 328 329 330 327 326 326 327 328 328 328 328 327 325 325 326 325 323 322 323 325 326 327 326 325 324 324 323 324 327 331 333 329 327 327 330 331 331 331 330 330 329 328 330 332 332 332 331 331 334 338 337 339 339 340 335 338 339 345 341 336 336 338 338 339 341 339 343
305 298 313 312 312 314 315 316 319 320 321 320 322 322 322 323 324 324 325 327 329 329 331 329 327 327 328 327 328 328 330 328 327 326 326 326 324 324 326 328 328 325 323 322 323 324 324 326 326 325 325 325 327 329 330 326 327 331 332 332 330 329 330 328 330 333 334 336 329 331 332 331 332 336 339 337 336 342 337 333 336 336 334 335 332 335 338
306 305 312 313 315 316 317 316 317 318 319 320 321 321 323 324 324 323 325 327 327 329 328 328 328 327 328 327 326 328 328 327 327 328 327 328 327 328 328 328 327 325 325 325 326 326 326 327 326 325 325 327 330 331 327 326 327 329 328 327 326 323 323 326 328 329 330 333 336 328 329 327 326 327 329 329 328 325 326 326 326 326 326 328 327 328 329
309 312 314 315 315 315 316 317 319 320 321 321 321 321 321 322 321 322 323 324 326 327 328 328 327 326 327 328 327 326 329 329 329 329 329 328 327 328 327 328 329 328 325 324 324 323 323 325 326 328 327 326 327 329 328 329 332 330 328 326 325 324 325 327 329 333 330 332 328 331 327 324 320 320 323 327 325 322 322 323 324 322 322 321 323 327 325
304 306 308 312 307 308 313 316 317 319 321 322 322 322 321 320 320 321 320 321 324 326 327 328 327 325 325 327 328 327 328 328 329 329 329 329 327 326 327 328 328 327 327 326 325 325 325 326 327 326 326 328 330 329 330 330 330 328 327 331 328 328 329 331 329 329 332 327 336 334 329 324 324 320 313 304 316 325 320 311 304 307 312 320 320 328 321
305 312 314 316 316 317 318 319 320 321 321 321 320 320 320 321 322 321 321 320 321 322 325 326 327 327 327 328 328 326 325 326 328 329 328 326 326 326 326 325 326 325 324 324 324 324 325 327 326 326 328 328 330 329 331 331 331 329 328 331 330 328 331 330 330 330 332 331 333 334 334 331 330 326 322 319 300 300 310 309 300 295 295 297 302 310 327
315 318 317 318 316 314 316 319 320 320 322 321 320 320 320 320 322 322 321 321 319 320 321 325 327 327 327 328 327 327 328 329 329 328 329 328 328 328 329 327 326 325 324 324 324 324 325 325 325 326 326 328 330 329 330 330 329 329 329 331 329 329 326 326 328 330 332 331 331 337 333 336 333 330 329 325 321 304 296 301 299 296 296 296 296 299 304
313 319 318 318 320 319 319 320 320 321 322 322 320 320 319 319 321 323 322 322 322 321 320 321 323 325 328 327 327 328 326 327 328 328 327 328 329 329 330 329 328 328 327 327 326 325 326 326 325 325 326 326 328 328 329 329 329 329 328 329 330 327 327 325 329 330 327 330 329 331 329 329 329 331 330 329 324 322 318 297 296 295 295 295 296 296 297
321 320 320 320 319 318 320 318 318 319 318 320 320 319 321 321 321 323 322 323 322 323 322 321 320 322 325 327 327 327 327 328 328 326 326 326 327 325 325 327 327 326 326 327 327 328 327 326 327 326 326 324 326 325 324 326 328 328 327 328 327 327 328 329 327 330 329 327 328 332 332 330 330 332 327 328 328 326 322 320 321 309 299 295 293 295 294
321 321 318 314 314 317 318 317 316 319 317 316 316 316 316 318 320 321 322 323 322 322 323 323 324 325 324 325 326 327 326 328 328 327 326 326 324 324 323 324 326 326 324 323 322 323 325 325 326 325 324 326 328 328 327 327 328 326 326 325 325 325 324 326 327 329 328 329 328 328 327 326 328 326 327 332 328 327 325 325 323 321 321 318 303 300 307
319 318 319 315 314 314 317 319 319 316 315 315 315 314 313 314 316 317 318 318 319 320 322 323 322 323 323 324 323 323 326 327 327 326 327 328 325 325 325 326 325 324 323 324 325 323 322 323 323 323 323 325 327 328 325 326 328 326 324 325 323 320 321 321 325 326 326 326 327 327 325 327 325 323 323 324 324 328 326 326 326 324 324 322 322 312 304
319 318 320 321 320 318 317 317 316 314 312 313 313 314 312 311 312 312 312 315 316 315 317 319 320 322 322 323 324 322 321 324 325 326 329 330 329 327 328 327 327 325 324 325 326 324 324 323 323 322 323 324 323 324 324 324 326 327 326 325 323 319 318 321 324 326 325 327 327 325 322 322 321 323 323 323 322 321 322 324 325 325 328 323 323 321 314
318 318 318 319 319 318 316 313 312 312 311 311 310 311 312 310 309 309 311 311 312 314 316 319 319 319 319 319 321 322 321 322 322 326 327 328 328 331 326 327 327 326 325 323 324 325 324 324 323 323 324 324 322 324 321 324 325 326 325 324 323 321 322 324 324 324 324 324 321 318 322 318 324 324 320 321 323 321 320 321 322 320 322 325 322 322 319
317 317 317 316 316 314 314 313 311 310 312 312 309 309 311 311 309 308 309 310 311 313 316 316 315 316 318 319 321 322 323 324 323 323 325 326 329 329 328 327 324 322 323 324 325 325 325 325 324 324 327 326 323 323 323 322 325 324 323 324 324 320 320 321 318 318 321 320 320 319 319 319 319 319 319 318 318 319 320 320 320 319 320 320 318 319 322
316 315 316 314 312 312 314 312 311 311 311 311 309 309 309 309 308 309 309 310 310 310 312 314 315 316 317 319 320 321 321 322 323 324 324 325 326 327 328 328 327 326 326 326 325 326 326 326 325 326 330 327 325 325 326 323 324 323 321 322 322 320 319 319 316 315 316 318 320 319 319 319 318 318 318 319 318 317 318 318 319 320 318 318 319 320 319
314 312 312 311 310 309 311 311 310 310 311 310 311 311 311 312 313 312 312 312 311 312 311 311 314 316 317 317 317 318 319 320 321 322 321 323 324 325 326 329 327 327 326 325 325 326 325 325 325 328 329 327 325 324 323 324 324 321 321 320 320 321 319 317 316 316 317 317 316 317 318 319 317 317 316 316 317 316 315 316 317 317 317 320 317 313 311
315 314 314 313 311 309 309 311 312 311 312 312 312 313 312 312 312 313 312 313 312 311 312 313 314 315 315 315 316 317 318 317 317 318 319 321 323 324 324 325 326 327 326 325 324 325 327 328 329 329 327 326 327 323 322 322 323 323 324 321 319 318 316 314 313 314 315 316 316 319 319 317 318 316 317 315 315 315 315 315 314 315 315 316 315 312 305
317 317 317 315 315 314 314 312 313 313 312 311 311 312 313 313 313 313 313 312 311 312 314 316 316 315 314 314 314 314 314 314 316 317 318 319 320 322 324 324 324 324 324 325 325 324 327 326 327 328 327 326 324 323 322 322 322 322 322 322 322 320 319 317 316 315 313 314 317 316 317 316 316 315 314 313 314 315 316 315 315 315 314 314 314 313 310
316 316 316 316 316 315 314 313 311 311 311 312 312 312 312 313 313 312 312 313 314 314 315 315 315 315 315 314 313 312 312 312 315 316 317 318 319 321 320 322 322 321 321 322 324 325 327 328 329 328 329 326 324 323 322 320 321 321 322 321 320 320 320 319 318 318 317 316 315 316 316 317 316 316 315 316 314 314 313 313 314 314 314 313 313 315 312
316 317 317 317 316 315 314 314 314 313 313 313 313 313 312 312 312 313 313 313 312 313 313 313 313 313 313 313 313 313 314 314 314 313 316 317 318 318 318 318 319 319 320 318 321 324 325 326 327 325 326 325 321 320 323 325 323 322 322 320 319 319 318 318 317 317 317 321 317 317 315 315 314 314 314 313 313 313 314 313 312 312 312 312 311 311 311
318 318 318 317 316 316 315 315 315 315 314 313 314 314 314 313 314 314 314 314 313 313 313 313 312 313 313 313 313 312 313 314 314 314 316 317 316 315 315 316 317 318 317 318 322 322 323 327 325 324 324 324 324 324 320 320 321 323 322 319 318 317 316 316 316 315 316 315 315 314 313 312 312 312 312 312 312 312 311 311 312 312 311 311 310 310 309
318 318 318 318 317 316 315 315 314 314 313 312 312 313 314 313 313 313 313 313 313 313 312 312 312 311 311 310 310 311 312 313 313 312 313 315 317 315 315 316 318 320 322 324 323 323 323 324 325 325 325 324 326 324 320 320 318 320 317 317 315 316 316 316 313 313 314 315 314 312 313 312 312 311 311 311 312 312 311 310 309 309 308 308 308 307 308
318 317 316 315 314 314 314 314 314 314 314 314 313 311 313 312 312 311 311 311 312 313 312 311 311 309 310 310 310 310 311 313 313 313 313 314 316 315 315 315 318 319 321 322 322 324 323 323 324 323 324 324 324 322 320 319 318 317 316 314 313 312 312 315 313 314 314 313 312 311 311 311 310 310 310 310 310 310 309 309 308 307 306 307 306 306 306
317 316 316 315 315 315 313 313 313 314 314 314 313 313 313 312 311 311 310 310 311 311 312 311 310 310 310 310 310 310 312 312 313 312 314 314 312 312 309 308 317 316 316 316 319 322 322 322 322 321 323 323 321 320 318 317 316 315 315 314 312 311 311 310 310 310 311 311 311 309 309 308 308 308 308 308 308 307 308 308 307 307 306 305 305 305 305
317 317 316 315 314 313 313 314 313 311 311 312 313 312 312 312 311 310 310 310 310 310 311 311 311 310 310 310 310 310 311 311 312 312 313 312 311 310 308 310 317 318 319 320 321 320 322 322 320 319 321 321 318 317 316 315 316 314 313 314 313 312 313 310 312 310 311 310 309 308 308 307 306 306 307 307 307 307 307 307 306 305 305 305 305 305 305
317 316 315 313 313 313 313 312 312 312 311 311 311 311 312 311 311 311 310 310 309 310 309 310 310 310 309 309 308 309 309 310 310 310 310 311 313 314 313 315 318 318 316 318 318 318 317 319 320 319 319 319 318 316 314 314 312 312 312 311 311 310 313 310 311 309 309 308 307 306 306 306 306 306 306 306 307 305 305 305 304 305 305 305 305 305 304
316 315 313 313 313 313 312 312 311 311 310 310 312 312 311 311 311 310 309 309 309 309 309 309 309 309 309 309 308 308 308 309 309 310 309 310 312 315 317 317 318 317 313 318 319 317 316 316 316 318 318 317 314 313 314 315 314 312 311 310 310 309 308 308 309 308 307 307 307 307 307 307 305 305 305 305 304 306 308 305 305 304 304 305 305 305 304
314 314 313 313 312 313 311 310 310 310 310 311 310 310 310 310 310 311 310 310 309 309 309 309 309 309 308 309 309 310 310 311 311 310 308 308 308 309 316 315 316 315 317 314 316 315 315 316 314 314 314 313 313 313 314 311 309 308 309 309 311 311 308 308 308 308 308 308 308 306 307 305 305 305 305 305 305 304 304 304 305 304 304 303 303 302 302
313 313 313 312 311 310 311 311 311 311 310 309 309 309 311 311 311 311 310 309 309 310 309 310 310 310 310 310 311 311 311 311 311 312 313 311 310 312 314 312 315 314 313 313 315 314 313 312 313 312 310 309 309 308 307 307 308 309 310 307 309 307 308 308 308 308 308 307 307 306 305 305 305 305 308 305 304 303 303 303 303 302 301 301 301 302 302
313 312 312 310 311 311 310 310 311 309 309 308 307 307 309 309 309 309 310 310 311 310 310 310 310 311 312 311 311 310 308 308 310 312 315 313 313 312 313 312 312 312 313 314 313 311 309 309 308 307 307 307 307 306 305 307 306 306 307 307 307 310 307 307 306 307 306 306 306 306 305 306 304 305 305 304 304 303 302 301 301 301 302 302 302 302 301
311 311 310 310 310 310 310 309 308 308 307 308 308 308 308 309 309 309 310 310 311 311 311 311 311 312 312 312 312 312 312 310 307 310 311 312 313 313 313 312 313 312 310 309 308 308 308 306 305 304 304 304 306 307 304 304 303 305 307 307 309 308 306 305 306 309 308 309 306 305 304 304 305 304 303 303 303 304 304 304 302 302 303 302 302 301 301
312 311 311 310 310 309 309 308 307 307 307 309 308 308 309 309 309 309 310 310 310 310 310 310 310 311 312 313 313 312 313 313 312 308 314 312 311 312 311 311 310 310 310 309 307 306 306 305 305 304 304 304 306 307 307 304 304 305 307 306 306 307 307 307 307 308 308 306 307 308 309 310 306 304 305 303 303 303 302 302 303 302 302 301 301 302 301
311 310 309 308 308 308 308 307 307 308 309 309 308 309 309 309 307 308 309 308 309 309 308 308 309 311 310 310 311 313 312 312 314 312 312 312 313 312 311 311 311 309 308 308 307 305 304 304 304 303 304 304 305 307 306 306 306 307 307 306 309 306 305 304 307 307 306 306 305 305 304 303 304 304 303 303 302 303 302 302 302 303 304 302 300 300 301
310 308 308 309 309 310 310 309 309 310 309 308 308 309 309 308 307 308 309 308 308 307 307 308 308 309 308 309 310 311 311 311 311 310 311 311 311 310 309 309 308 308 308 307 306 305 304 303 303 303 303 304 305 305 305 305 304 305 304 305 304 304 304 305 304 304 304 305 305 305 305 305 304 304 303 302 302 302 302 302 301 302 301 301 301 301 301
310 309 311 310 309 309 309 310 311 311 311 310 310 309 308 308 308 307 308 307 307 307 307 306 306 307 308 309 309 309 310 309 310 310 310 310 310 309 308 307 307 307 306 306 305 306 305 304 303 303 302 303 305 305 304 304 303 303 304 305 305 305 305 305 304 304 305 304 304 303 304 305 304 302 303 303 303 302 303 302 302 302 302 302 302 302 302
Wind_Speed
10 9 12 8 9 11 13 9 8 12 14 13 13 16 12 3 3 6 8 6 10 10 13 14 11 8 7 5 5 6 5 4 10 11 9 11 13 12 8 5 3 5 6 9 12 13 9 6 5 6 11 10 9 4 4 9 8 7 6 6 6 6 8 7 6 7 6 5 4 4 3 4 6 5 3 6 5 5 7 7 9 9 8 11 10 5 4
10 11 12 11 13 12 12 7 6 11 14 13 9 11 7 10 7 7 7 8 12 8 11 8 11 13 10 7 5 8 9 5 6 9 11 10 12 14 11 7 3 3 5 7 8 12 14 12 7 5 7 9 7 11 12 9 8 7 7 7 6 6 7 6 6 7 6 4 4 3 3 3 1 3 3 3 4 6 5 6 5 4 5 4 6 8 7
10 15 16 13 10 12 12 5 16 20 11 2 4 4 6 13 15 10 4 16 12 7 8 9 9 7 9 8 8 8 10 9 7 7 5 5 6 10 12 12 8 2 2 4 6 8 9 8 5 6 10 8 5 8 6 7 7 6 5 5 4 5 5 3 4 6 5 4 4 3 2 2 2 3 2 2 4 2 1 3 4 2 2 4 6 6 9
7 12 12 12 15 13 1 16 15 11 12 8 13 12 13 16 18 9 18 11 9 6 6 8 8 7 8 7 7 8 8 10 10 8 8 8 6 7 11 13 12 12 8 5 5 6 7 9 10 7 5 4 9 2 6 6 5 6 5 3 5 3 1 2 4 3 1 4 4 3 4 4 3 3 3 3 3 3 2 4 2 3 4 4 4 5 5
8 11 7 9 10 9 4 9 11 10 9 7 8 11 16 17 14 15 11 8 5 6 3 7 6 8 6 6 5 4 8 11 15 14 13 11 7 5 4 7 11 11 9 7 6 5 5 4 4 4 8 11 4 5 5 5 6 5 6 4 2 3 3 3 5 3 4 5 4 4 4 3 3 3 3 3 3 3 4 3 3 2 3 4 4 3 4
6 11 9 11 6 7 8 6 7 10 7 10 10 11 14 15 13 10 6 4 3 2 1 2 3 5 5 4 4 2 5 5 4 8 10 11 7 7 7 8 6 7 6 5 5 6 6 6 6 5 6 6 6 5 5 5 8 6 5 2 1 6 5 5 3 2 4 6 3 4 3 3 1 2 2 2 4 2 2 2 2 5 6 7 7 7 7
5 7 9 5 4 9 4 9 10 11 9 9 12 13 14 13 13 12 10 8 8 9 8 3 4 6 7 6 5 4 8 11 8 6 8 11 12 9 9 8 7 7 9 9 8 8 7 5 5 5 6 6 5 6 5 6 6 6 5 5 4 3 3 4 6 6 6 3 8 4 2 2 3 2 3 2 5 2 4 7 8 5 5 3 5 6 6
2 4 2 5 7 5 7 12 12 11 9 10 8 12 13 13 13 11 9 8 8 6 7 10 4 6 10 11 11 9 7 9 8 7 5 9 10 9 8 10 8 8 9 9 8 7 6 5 5 5 5 4 6 7 5 7 7 7 6 7 8 2 2 3 3 4 4 3 0 5 6 5 3 2 2 2 4 7 6 4 2 5 2 3 3 3 3
6 3 4 1 5 8 9 8 12 11 10 7 4 7 12 14 11 11 10 9 8 5 8 4 3 3 8 11 9 9 11 10 10 11 9 9 9 10 11 11 10 10 9 9 8 8 7 6 6 6 5 6 7 7 7 7 7 6 5 5 4 4 4 3 2 2 2 2 2 1 2 3 2 3 3 4 3 3 4 3 1 4 2 2 1 2 5
5 5 6 5 5 6 4 7 12 11 10 4 3 6 10 12 13 11 10 10 9 7 7 8 10 10 4 7 9 10 10 10 12 11 12 12 12 11 11 10 10 9 9 9 9 9 9 10 8 6 6 7 8 8 7 6 7 7 6 5 4 5 5 5 5 4 3 3 6 4 2 3 2 1 2 4 4 4 4 3 4 5 5 5 5 5 6
4 5 5 4 3 4 4 7 9 11 9 6 3 3 7 10 12 10 9 11 12 11 11 10 8 6 3 2 6 7 9 8 9 11 11 11 11 10 10 11 12 12 11 12 11 11 11 11 10 9 9 9 9 8 7 7 7 8 7 5 4 4 5 6 6 6 6 7 6 4 1 3 2 3 4 3 2 3 4 4 3 3 4 4 3 4 5
5 5 6 5 3 4 4 8 8 10 10 10 2 6 1 10 12 10 11 10 8 8 9 9 9 6 4 2 0 5 6 9 9 10 12 13 13 13 13 13 12 13 12 12 12 12 12 11 10 10 10 10 10 8 8 8 10 9 8 6 5 5 5 6 7 8 6 6 6 5 5 5 4 5 4 4 4 5 6 6 5 5 4 4 5 4 4
6 8 3 5 5 7 11 12 10 11 9 4 6 2 6 7 8 9 9 9 8 7 6 5 5 3 3 2 6 8 10 11 12 12 11 12 13 13 13 12 11 11 12 12 13 13 10 10 9 9 9 9 9 8 8 10 10 8 6 6 6 6 7 8 8 8 8 7 7 6 4 3 2 0 3 5 3 3 4 6 7 6 6 6 5 4 4
6 2 4 5 7 7 12 11 10 14 10 3 5 4 4 6 9 7 8 8 7 9 7 5 7 9 9 8 9 10 11 10 10 12 12 12 13 14 13 13 12 12 11 12 12 12 10 11 10 9 8 8 8 7 8 9 9 7 6 7 7 7 7 8 8 7 7 6 7 5 3 2 3 4 4 2 3 5 4 6 4 6 8 6 6 5 3
4 2 3 3 1 8 14 11 5 16 6 4 3 2 5 9 7 8 8 8 7 9 12 13 13 13 10 7 9 9 9 10 8 9 9 8 8 10 12 11 11 10 8 8 11 12 11 11 9 9 9 9 7 7 8 8 6 6 6 6 6 5 5 6 6 7 8 8 6 4 5 4 4 4 4 6 4 4 6 5 4 2 4 7 7 7 6
3 4 5 4 4 7 12 11 8 6 7 4 5 4 5 6 5 7 6 7 6 8 10 12 12 10 9 9 10 9 9 10 11 11 10 10 9 10 11 11 11 12 10 10 10 11 10 9 9 8 8 7 6 6 7 5 5 4 3 4 5 5 4 4 5 6 6 6 5 5 5 6 5 6 5 3 3 2 2 4 6 6 3 3 4 6 6
5 4 6 5 6 8 10 10 9 9 9 9 8 7 6 6 6 6 6 6 5 6 8 10 10 10 10 13 11 11 10 10 11 10 10 9 11 12 12 12 11 10 10 11 10 11 9 9 8 7 6 7 7 7 4 4 4 4 4 4 4 3 2 2 2 4 5 4 4 3 4 3 3 3 5 4 4 4 5 5 4 3 2 4 5 4 1
11 10 8 6 7 8 10 10 9 10 10 10 9 8 7 8 8 7 7 7 7 4 2 3 4 7 10 10 9 10 11 11 11 10 10 10 11 11 10 10 10 11 11 11 11 10 10 10 9 7 6 5 6 5 3 2 3 3 3 2 2 2 4 5 3 3 2 4 3 5 5 3 4 3 6 5 3 0 3 4 4 4 4 2 1 2 3
6 5 5 7 7 6 6 8 10 10 10 10 9 9 9 8 8 8 7 6 6 4 2 5 6 9 8 10 7 5 4 7 10 10 9 9 10 10 8 9 9 9 9 9 10 10 10 9 8 8 8 7 5 4 3 4 4 4 4 3 2 2 1 2 3 5 6 2 2 3 4 4 4 2 3 3 3 4 5 3 1 1 2 2 2 3 2
3 8 6 8 8 8 8 7 7 8 9 10 10 9 9 8 9 9 8 8 8 7 7 6 6 7 6 7 6 5 7 8 8 8 8 7 8 7 9 10 11 10 9 9 10 9 8 7 7 7 6 6 5 4 5 6 5 3 3 2 2 1 2 2 3 4 4 6 5 2 7 8 8 8 8 7 8 8 6 6 6 6 8 9 8 9 7
6 7 6 7 7 8 8 8 8 7 7 8 10 10 11 11 11 10 10 9 11 10 7 7 5 5 3 4 5 3 4 8 7 7 7 6 7 6 6 8 9 8 8 9 8 8 8 6 6 5 6 6 6 6 5 5 3 4 3 2 0 1 0 1 3 1 2 3 4 2 9 9 8 6 5 7 8 7 6 5 5 6 6 7 7 7 7
5 3 5 5 4 5 5 7 7 7 8 8 9 10 11 11 11 10 9 8 8 9 9 8 8 7 3 2 4 4 2 3 4 6 7 6 7 7 7 9 11 10 10 9 9 8 7 5 5 5 5 4 4 6 5 4 4 3 2 0 1 2 2 2 2 1 2 1 5 8 4 7 7 7 9 10 8 6 5 5 10 10 9 6 3 4 7
3 4 4 7 7 7 5 5 6 6 7 8 8 9 9 9 9 9 10 9 8 7 8 6 7 6 5 5 8 10 7 8 7 7 6 5 4 5 5 7 9 9 9 8 8 8 7 6 6 5 5 5 4 5 4 4 4 4 2 1 2 2 2 3 3 3 2 4 3 3 4 5 5 6 5 7 12 11 8 8 9 11 10 7 8 9 7
6 3 4 1 1 5 6 5 5 6 6 6 7 8 8 8 7 7 8 8 8 8 7 9 5 4 5 4 4 7 8 6 7 8 7 7 6 5 5 6 7 7 7 7 7 8 7 7 7 6 7 6 5 5 5 4 3 2 1 1 2 2 3 3 1 2 4 3 2 1 3 3 3 5 5 5 4 7 7 7 9 9 10 10 9 10 10
6 4 5 4 6 7 6 6 6 6 6 6 6 6 7 6 6 5 7 6 7 8 7 7 8 4 3 6 5 6 7 8 7 6 8 7 5 4 3 4 6 5 4 4 5 4 5 6 6 7 7 7 6 7 5 4 3 4 1 1 1 3 4 2 1 2 2 2 2 4 2 2 2 2 1 3 5 3 2 8 9 9 6 6 10 10 11
7 6 5 5 5 5 6 6 6 6 6 5 5 5 5 5 4 5 6 6 6 7 7 8 8 8 5 5 4 3 6 8 8 7 6 6 6 5 5 5 5 5 6 6 4 3 2 2 3 4 4 6 6 7 7 6 5 4 2 4 6 5 4 2 1 0 1 3 1 2 3 4 4 0 2 2 2 5 4 2 2 2 4 6 5 8 9
6 5 4 6 6 5 3 3 5 4 5 4 4 5 4 3 2 4 5 5 5 6 6 7 7 6 6 5 3 5 4 4 6 7 6 8 8 7 7 6 7 7 7 5 5 4 2 2 3 1 1 2 1 3 6 6 5 4 4 3 4 3 3 3 1 1 1 1 2 3 3 3 3 2 4 1 0 2 1 4 5 5 4 3 2 5 3
5 3 2 1 2 7 7 8 7 5 4 4 4 4 4 3 4 5 6 6 6 5 4 5 6 6 6 5 5 3 3 5 6 6 7 6 7 7 6 6 6 6 5 5 6 6 6 5 5 5 4 4 2 1 5 4 4 4 4 3 4 4 3 2 0 2 2 3 3 3 3 2 1 2 2 3 3 0 1 1 0 2 4 5 4 6 5
5 4 4 6 7 8 7 6 6 6 5 4 3 2 3 4 6 6 5 4 6 6 5 5 4 4 5 5 4 5 3 2 4 6 6 5 6 3 3 2 6 7 6 7 7 7 7 8 7 6 5 5 4 3 5 5 4 3 3 3 4 6 5 3 2 2 3 3 3 4 3 2 3 3 3 3 2 2 3 4 2 1 4 6 4 3 1
6 5 5 6 7 6 7 7 6 6 6 3 3 3 4 4 5 5 4 5 4 3 3 3 4 4 4 4 5 5 5 5 1 4 6 6 5 5 6 7 7 7 8 8 8 7 7 7 7 7 7 7 6 5 5 5 3 3 2 1 7 6 5 3 2 3 2 1 3 2 2 2 2 2 3 3 2 3 3 2 2 3 4 2 5 6 7
6 5 6 5 6 7 7 7 5 3 3 3 1 2 4 4 4 5 4 3 4 3 4 4 5 6 5 4 4 4 5 5 6 4 3 4 6 5 5 5 7 7 7 6 7 8 7 7 7 7 6 7 7 7 5 5 4 5 3 2 4 7 7 7 5 4 2 2 3 3 2 3 3 3 2 2 2 3 2 2 2 3 3 2 2 3 5
7 6 6 5 5 6 7 5 3 3 3 1 1 2 3 4 5 4 5 4 4 5 5 4 3 5 5 5 3 3 4 4 5 5 5 4 3 3 6 7 7 6 5 3 5 8 7 6 7 7 7 7 7 7 5 5 5 5 5 5 5 5 5 7 1 0 1 3 2 2 2 2 2 2 2 2 2 2 2 3 3 3 3 3 2 6 5
8 7 6 6 6 6 6 6 4 4 3 1 2 3 3 2 2 3 4 4 4 4 4 4 4 3 4 5 6 5 5 5 6 5 6 6 5 2 1 3 3 2 3 3 1 2 4 7 7 6 7 8 9 8 8 7 5 6 5 4 4 5 6 4 4 2 1 2 3 3 2 2 1 1 2 2 2 3 3 4 4 4 3 2 5 6 5
7 6 6 8 6 6 6 6 6 4 2 2 3 3 2 1 2 3 3 4 4 5 5 5 5 5 5 6 6 5 5 5 5 5 5 5 5 6 4 5 4 5 5 4 5 5 3 1 3 4 7 9 9 9 10 9 6 5 4 5 4 6 6 5 4 3 3 3 3 2 2 2 1 1 2 2 2 2 3 3 3 4 4 2 7 4 4
6 4 2 3 6 4 3 3 4 4 3 2 2 3 2 3 4 4 4 5 6 5 5 5 4 5 5 5 6 6 6 6 6 6 6 5 5 4 5 5 5 5 5 5 6 7 6 8 9 8 7 9 11 10 9 9 8 7 7 7 6 6 6 6 5 5 4 4 3 4 3 3 3 2 2 2 3 3 2 2 3 3 3 2 4 5 4
6 4 5 3 2 3 4 3 2 1 2 2 2 2 3 4 5 5 6 6 5 5 6 6 6 6 7 6 6 6 7 7 7 6 5 6 6 4 4 5 5 5 6 6 6 6 4 5 8 8 2 2 5 9 11 10 9 8 6 6 6 5 6 7 7 7 5 5 6 4 4 3 3 2 2 2 3 4 4 3 2 2 3 3 3 4 5
5 5 5 5 4 4 3 2 2 1 1 1 1 2 4 4 5 5 5 5 6 6 6 6 7 8 7 7 8 8 7 6 6 6 6 5 5 5 5 6 6 5 5 5 6 7 7 5 7 8 5 2 2 3 9 11 6 6 6 8 7 7 6 7 6 5 7 4 1 3 2 2 3 3 3 3 3 3 2 3 3 3 3 3 3 4 3
5 5 6 5 5 4 3 3 2 2 1 3 3 3 3 3 4 4 5 5 6 6 6 7 7 6 7 8 8 7 8 8 8 7 6 6 5 6 6 6 6 6 7 6 5 5 5 3 11 7 6 6 5 5 6 3 5 5 6 6 3 3 2 3 1 1 2 3 2 1 1 4 4 4 4 4 4 4 4 3 3 2 2 2 2 3 3
6 5 5 5 4 4 4 3 2 2 2 2 2 2 2 3 4 4 5 5 6 6 7 7 7 8 8 8 7 8 8 8 8 9 9 8 6 5 6 6 6 6 5 3 3 3 5 3 6 5 6 6 6 5 5 5 4 4 4 4 5 5 5 6 4 1 1 2 4 5 4 4 4 4 4 4 3 4 4 3 1 1 1 2 3 3 3
7 6 6 5 5 4 4 3 2 2 1 1 1 2 2 2 3 3 4 5 6 6 6 6 7 7 7 8 8 9 9 10 9 8 9 9 8 8 7 6 7 7 7 7 6 5 4 5 6 5 5 5 5 5 4 6 5 4 4 5 5 4 4 4 5 4 4 4 1 2 3 3 3 4 4 3 3 2 2 2 3 4 4 3 2 3 3
7 7 6 5 4 4 4 3 3 2 1 1 2 2 2 2 3 4 5 5 5 6 6 6 6 7 7 7 8 8 8 9 10 10 9 8 8 8 8 8 5 5 6 7 5 2 2 2 4 6 5 5 5 6 6 11 8 5 4 4 5 5 5 6 5 4 5 4 4 3 3 3 4 4 4 4 4 3 3 3 3 2 1 2 3 3 3
7 7 6 5 4 3 2 2 1 2 3 4 4 3 3 3 4 5 5 5 6 6 6 6 7 7 7 8 8 9 9 9 9 9 9 8 8 8 9 8 5 6 12 10 6 1 3 5 2 4 6 2 4 9 10 8 5 4 4 3 3 5 6 6 3 3 3 2 3 3 3 4 4 4 5 5 3 3 3 2 1 2 2 3 3 3 2
7 7 6 5 4 3 3 3 3 3 3 3 3 2 2 4 4 5 5 5 6 6 6 6 6 6 6 7 8 8 7 7 8 8 8 9 8 7 8 6 4 4 7 5 5 6 6 6 3 5 6 6 7 11 11 7 6 6 6 7 6 5 3 3 4 4 4 4 5 5 5 5 6 5 4 2 0 1 2 3 3 3 2 2 2 2 2
7 6 5 4 4 3 3 2 3 4 4 3 2 3 3 4 5 5 6 6 6 6 6 6 6 6 7 7 7 7 7 7 7 6 7 7 7 6 4 3 3 2 2 2 2 1 1 5 9 5 6 11 14 13 6 4 3 3 3 4 4 5 6 6 5 5 5 5 6 6 5 5 5 5 3 3 4 3 2 2 4 5 4 4 5 5 6
7 5 5 4 4 3 3 4 3 2 3 3 2 3 4 4 5 5 5 5 5 6 6 6 6 6 7 6 6 7 7 6 6 7 7 6 7 6 2 2 1 2 1 2 1 1 1 2 6 7 5 11 10 8 4 4 4 3 2 1 2 3 3 4 5 5 5 6 6 4 4 4 4 3 3 3 3 2 2 3 2 3 4 5 5 3 5
7 6 4 4 4 4 3 1 1 1 2 3 3 5 5 4 4 4 5 5 5 6 6 6 7 7 7 7 7 8 8 7 7 7 6 5 4 4 2 3 2 2 2 3 2 2 2 7 9 10 12 12 10 6 4 5 5 2 2 3 3 3 3 6 7 6 5 4 1 2 4 3 2 0 2 3 3 2 2 0 1 4 4 5 7 7 4
7 6 6 5 5 4 2 2 2 2 3 4 4 3 2 3 4 4 4 4 5 6 6 6 7 7 7 7 7 6 6 6 6 2 2 1 1 1 2 1 2 2 0 0 1 4 5 6 8 11 12 12 9 6 6 5 5 4 5 5 4 1 4 7 6 5 3 3 4 3 2 2 5 6 7 9 7 6 4 5 6 5 2 3 4 4 4
7 7 7 6 5 4 3 2 3 5 4 3 2 3 3 3 3 4 4 4 4 4 5 5 5 7 7 6 6 5 4 4 6 4 3 2 2 2 2 1 3 8 10 11 11 10 12 12 12 12 11 9 6 3 3 4 2 2 2 2 1 3 6 7 4 2 2 1 3 5 6 4 4 2 6 7 4 4 4 2 2 4 3 3 3 3 3
7 7 6 5 5 4 4 3 3 4 3 1 2 3 2 3 4 3 3 4 3 3 4 4 4 2 2 3 4 3 1 1 3 3 3 4 3 4 5 7 10 8 5 4 5 5 8 10 10 10 10 7 3 4 3 3 2 2 2 4 3 1 1 1 5 6 4 4 4 5 2 1 4 3 4 6 5 4 3 4 3 3 3 2 2 3 3
6 5 3 4 5 5 5 5 7 3 2 3 3 2 3 3 3 2 2 3 3 3 4 3 2 1 3 2 0 0 1 2 1 1 2 4 4 4 3 3 2 1 2 3 4 4 5 7 8 8 6 4 3 4 3 2 2 2 2 2 1 1 2 1 2 3 5 5 7 7 6 3 2 3 3 3 3 3 3 3 4 1 9 1 4 4 4
5 5 6 6 4 3 2 2 3 2 3 3 2 2 2 3 2 2 3 3 4 3 2 2 2 3 4 3 1 0 1 1 3 3 2 5 4 3 2 3 3 3 3 3 2 3 4 4 5 5 4 3 3 4 3 4 2 1 1 1 2 3 3 4 5 5 4 3 3 2 1 2 2 2 4 5 4 4 4 5 5 5 5 5 4 4 5
6 5 4 2 3 5 6 6 6 3 3 3 4 3 3 2 1 2 1 0 3 2 1 1 1 1 3 2 1 0 1 0 3 3 5 4 4 4 4 4 4 3 3 2 3 4 4 4 5 5 5 4 3 3 4 5 4 5 6 6 6 6 6 5 4 5 4 6 5 3 1 0 2 4 5 5 5 5 5 5 5 5 4 5 5 4 5
Wind_Direction
253 243 267 273 272 263 283 233 219 216 218 254 238 214 226 124 214 152 171 162 139 166 156 175 168 202 230 214 196 149 89 105 133 135 151 171 158 157 133 91 40 113 146 138 150 129 134 202 232 197 191 166 163 149 148 192 176 175 168 168 179 165 175 189 174 181 195 215 237 218 209 197 224 268 248 203 202 181 174 208 212 222 219 163 210 193 213
248 224 221 247 254 252 274 246 183 231 214 213 251 323 335 283 185 190 175 118 112 113 147 151 147 165 193 197 192 124 125 164 117 141 171 168 174 156 134 129 114 71 102 121 124 121 148 176 193 218 210 156 193 169 185 185 163 164 161 173 180 175 176 192 176 176 183 207 219 223 215 222 232 237 261 290 225 193 195 207 226 233 220 221 208 187 184
284 282 236 202 255 275 253 3 24 360 334 246 14 310 279 262 251 203 116 108 97 101 123 134 135 129 125 145 150 138 152 145 150 171 184 192 206 163 146 141 125 71 5 104 112 118 128 125 74 23 354 321 204 182 162 170 162 154 130 168 163 175 173 194 187 172 179 199 205 215 194 191 220 278 304 302 323 329 248 197 224 248 263 235 227 226 198
277 273 257 221 222 235 195 46 23 346 348 359 38 16 11 13 7 0 96 76 84 73 56 102 119 132 142 142 138 151 144 148 152 171 191 210 216 195 166 156 151 159 175 158 136 122 121 135 145 155 167 260 263 198 168 160 164 149 129 130 159 162 5 37 24 344 299 203 205 198 200 193 200 214 243 264 299 305 282 247 182 247 247 253 279 283 257
254 294 258 218 223 237 189 45 22 359 324 359 37 36 26 28 39 45 52 80 51 69 99 106 116 115 128 142 154 167 151 151 166 172 194 181 150 245 164 167 161 166 163 160 153 144 131 128 107 104 153 191 172 206 209 178 160 136 98 114 277 182 210 90 271 272 244 239 200 201 196 202 199 208 225 228 239 257 251 274 304 280 257 250 245 273 302
314 297 282 351 304 212 58 30 18 355 357 44 58 36 26 31 37 57 33 39 10 56 118 102 104 113 122 129 120 122 106 122 157 154 150 129 121 116 80 48 33 77 92 108 72 67 87 91 87 69 71 78 75 43 72 91 89 80 116 126 159 126 151 173 173 203 320 282 234 205 183 157 171 195 190 221 233 213 293 294 323 7 345 4 26 38 50
254 307 342 286 49 46 87 50 19 12 28 57 46 45 33 30 32 39 50 34 52 11 331 48 60 97 119 86 68 64 58 73 71 79 99 95 106 109 116 119 123 116 111 105 91 78 79 92 113 111 91 96 75 68 73 84 102 114 110 104 65 27 98 148 185 192 184 197 255 259 251 200 221 218 282 282 254 335 1 7 345 332 308 360 32 44 55
278 260 293 270 99 252 79 55 31 15 19 50 74 63 41 31 28 34 28 29 22 59 27 16 3 61 67 64 55 38 61 95 92 92 86 100 95 94 96 104 100 91 98 92 87 82 77 84 81 74 90 93 83 96 92 94 99 108 115 119 119 165 157 203 198 196 175 181 336 300 297 282 256 266 282 295 17 28 25 21 243 249 14 15 50 48 72
254 217 244 120 135 219 53 33 25 6 31 44 17 70 47 23 31 32 20 31 12 62 75 31 33 120 90 77 52 49 51 82 94 97 96 93 91 83 76 76 79 85 89 91 91 89 84 84 83 86 96 100 98 91 96 102 103 103 101 93 92 102 128 156 163 151 152 119 134 255 255 325 344 12 9 5 46 100 147 204 251 110 132 101 83 84 71
240 247 227 185 182 198 80 12 345 351 7 30 143 104 64 20 21 30 37 15 20 36 70 50 15 315 151 92 86 74 71 80 93 86 81 76 80 86 88 92 94 94 95 97 97 98 86 66 48 46 72 85 86 76 73 70 86 93 89 68 51 73 68 62 58 54 72 106 102 96 227 220 273 343 36 73 70 99 100 71 55 70 84 62 52 60 71
200 225 259 244 261 47 331 351 338 333 347 7 121 329 52 12 6 29 33 37 38 18 26 31 38 29 317 67 79 99 97 93 95 101 97 92 91 95 96 99 98 97 96 95 94 87 83 77 74 68 61 65 67 73 70 56 63 71 61 59 36 49 64 70 70 59 71 89 106 142 105 31 353 82 89 105 189 127 129 131 102 75 86 103 96 66 73
255 277 228 235 91 124 352 341 327 340 332 322 265 224 101 328 357 19 35 40 57 64 51 69 76 74 4 22 298 68 76 81 90 104 106 103 104 103 101 99 106 109 109 102 94 88 80 76 72 68 69 64 60 56 58 59 57 48 41 33 23 24 37 49 58 55 59 93 109 115 84 85 95 113 120 114 148 139 147 150 142 133 122 120 117 89 72
198 194 212 125 117 40 351 344 332 344 330 309 265 347 45 340 12 30 38 36 61 93 90 99 94 80 117 4 15 71 84 86 82 67 78 103 104 105 108 112 119 115 106 100 98 99 98 93 80 72 64 64 55 53 47 55 54 42 35 31 25 32 43 49 53 57 60 54 66 83 89 73 23 183 153 130 112 104 141 136 139 135 140 125 118 104 88
243 289 273 90 77 28 343 335 13 348 292 269 49 42 328 355 37 34 36 48 63 85 96 95 87 95 70 72 67 74 90 96 84 94 101 105 85 58 50 56 72 82 76 62 61 74 96 105 101 87 82 77 74 63 56 49 41 18 15 35 30 23 32 52 53 49 49 50 54 54 94 121 74 39 32 110 176 171 136 101 107 171 153 143 131 118 109
342 192 211 75 132 21 4 339 39 18 42 67 6 340 10 35 33 32 36 45 75 91 99 99 105 104 112 113 116 120 111 100 100 87 75 72 83 86 84 83 88 88 78 78 86 94 81 69 73 86 85 81 76 75 75 75 69 37 1 30 34 25 48 49 58 59 53 34 28 33 51 57 55 48 57 63 46 45 87 114 127 100 133 147 138 133 142
1 22 33 71 39 41 31 39 65 50 56 47 40 16 38 30 32 51 57 56 68 95 103 114 118 127 134 123 121 110 106 110 109 118 121 123 119 116 111 112 113 109 104 92 73 55 61 83 93 82 69 64 66 67 78 91 93 81 40 35 64 22 12 69 73 66 57 58 41 25 28 32 41 41 38 35 43 10 219 158 144 137 184 171 154 141 139
26 66 91 94 77 57 59 60 68 62 52 52 57 52 54 45 43 38 60 87 105 96 111 113 114 124 132 137 138 137 138 134 134 143 157 141 125 128 133 131 135 125 111 107 100 94 87 81 76 90 101 96 84 70 48 70 89 86 69 47 26 21 9 79 83 112 136 129 129 98 77 70 30 34 21 20 36 339 344 18 42 69 21 46 34 63 92
92 89 95 102 84 86 85 72 58 51 49 50 57 50 56 54 60 54 56 67 97 103 64 112 108 118 135 127 134 137 146 146 145 159 155 136 125 125 133 138 125 104 104 102 104 113 116 115 113 105 94 83 94 102 103 69 72 92 118 111 93 33 341 341 27 90 142 137 142 153 155 181 192 175 182 186 142 105 27 54 13 28 324 72 119 119 258
140 96 115 112 109 97 80 77 64 61 54 51 46 52 50 54 69 71 75 66 58 57 69 72 92 106 120 133 133 148 154 147 149 154 136 126 136 142 131 114 107 106 108 109 108 106 106 109 113 111 114 120 122 123 137 119 87 55 49 58 62 44 2 33 356 6 4 17 189 160 197 193 172 205 112 91 88 37 23 356 48 355 232 141 279 122 145
88 117 99 78 79 74 61 54 63 62 58 53 51 52 49 47 55 67 68 73 70 74 71 71 92 87 89 116 140 157 161 151 149 131 134 143 144 134 130 118 109 111 108 104 100 91 83 83 84 96 112 129 143 135 108 85 86 80 75 69 74 60 31 16 14 357 345 333 336 120 63 48 41 43 43 64 65 49 35 27 31 33 18 30 27 12 2
114 107 121 115 99 84 76 81 75 62 51 56 57 50 49 40 41 46 51 52 85 88 82 91 81 79 92 99 104 84 92 111 113 112 100 100 103 108 114 117 121 113 112 109 109 101 96 94 97 97 94 84 91 101 105 100 99 86 80 87 161 168 169 72 81 335 312 325 323 59 96 72 61 36 27 70 82 77 49 28 41 45 37 39 20 25 47
138 98 137 169 190 118 91 69 65 69 65 58 53 54 54 49 41 35 53 52 34 90 118 119 117 128 141 195 131 96 67 85 136 134 128 115 112 102 92 94 102 108 108 108 105 107 105 105 101 102 97 93 95 96 98 108 111 119 115 81 50 65 80 21 79 271 310 253 57 2 54 110 106 80 52 47 41 88 98 61 64 65 78 73 8 22 73
149 161 95 69 84 108 97 84 60 64 73 66 59 52 48 51 51 42 36 43 51 54 73 79 117 143 170 180 156 159 176 179 199 148 137 137 136 133 120 117 118 127 135 138 137 134 134 133 134 134 121 107 100 93 93 102 116 126 169 176 145 93 80 68 359 15 0 41 20 52 19 105 99 100 100 54 46 51 91 127 103 89 83 89 60 46 83
120 108 96 69 193 125 123 107 78 53 34 68 72 57 48 40 45 51 49 37 37 30 44 100 118 154 163 163 186 159 153 165 171 157 151 150 149 145 146 149 150 149 151 151 147 140 147 153 151 150 140 133 122 119 112 112 113 96 96 183 215 127 103 108 317 327 43 28 16 7 60 28 115 141 130 111 76 39 44 73 84 96 106 91 80 80 74
130 132 118 137 117 117 122 99 79 71 60 52 62 63 49 33 38 42 45 45 29 28 26 36 73 77 180 174 162 148 149 174 175 173 170 164 151 149 121 134 133 121 119 135 140 152 161 157 159 159 147 144 134 122 119 102 94 103 59 347 84 107 104 119 122 338 107 56 31 333 70 106 86 356 359 171 142 141 64 44 70 82 63 98 115 109 96
116 124 120 108 146 136 126 146 118 90 69 66 71 64 81 69 28 51 56 30 35 25 24 21 30 34 28 6 51 109 151 177 169 170 178 181 182 184 173 144 115 102 89 75 78 77 96 141 156 147 142 143 142 142 137 122 112 116 103 61 52 36 24 59 91 172 101 135 185 117 30 17 4 86 177 332 94 148 153 136 70 39 91 62 41 85 78
128 129 146 185 160 119 57 93 105 86 83 55 60 75 48 50 42 76 102 84 56 27 19 14 27 15 21 22 27 153 188 191 175 189 205 207 203 205 196 173 160 153 152 148 155 162 141 57 36 60 133 107 99 105 108 121 121 134 129 127 118 102 53 7 243 166 54 53 64 72 48 35 8 345 351 93 276 307 158 164 174 175 189 159 211 258 167
128 150 246 74 145 142 130 126 121 113 98 92 89 60 55 53 63 20 34 45 57 37 51 42 15 5 0 22 350 340 138 178 175 193 221 229 230 201 191 178 178 179 188 187 181 177 178 184 184 181 143 107 66 75 110 123 136 136 154 167 147 151 179 194 175 90 80 68 42 25 49 25 359 337 344 337 333 10 162 282 221 172 144 155 170 204 196
130 126 107 122 111 101 113 125 128 115 116 123 87 85 67 50 70 46 33 31 29 3 3 38 13 7 353 357 352 347 313 184 225 223 216 217 240 238 344 258 191 194 207 202 195 187 185 183 185 186 169 148 159 152 135 137 140 154 164 194 166 157 168 194 208 139 108 84 58 54 29 359 351 335 321 322 317 314 328 339 347 237 108 139 141 139 216
135 124 131 124 143 154 150 146 141 142 115 79 61 46 62 14 41 49 14 34 7 342 348 20 12 359 1 335 355 351 336 329 323 248 244 235 226 141 165 227 237 212 209 217 215 196 192 186 191 191 179 173 173 169 154 148 148 144 163 80 59 45 41 54 92 93 97 121 120 105 229 271 306 294 304 320 331 333 327 317 328 341 341 157 174 170 191
138 159 144 152 150 160 156 131 133 158 109 96 22 4 62 36 20 12 7 9 356 10 14 342 334 323 321 335 359 348 339 321 315 312 309 221 215 201 187 201 226 213 210 211 213 210 198 191 195 200 181 179 173 180 167 157 169 154 159 175 112 106 93 55 43 16 345 194 169 190 180 204 208 231 246 266 293 295 255 246 256 274 254 255 275 297 60
151 155 149 152 165 174 141 144 175 152 141 141 17 35 27 11 351 337 353 5 359 345 336 330 332 323 326 320 314 323 320 322 312 306 300 319 305 162 234 228 237 228 234 201 215 206 203 205 203 201 178 184 181 187 177 178 175 168 186 193 156 164 136 137 142 154 299 315 305 230 221 201 222 221 228 227 258 254 269 286 281 242 221 240 277 68 68
169 166 171 178 176 193 170 168 191 189 166 174 54 21 337 312 321 339 336 350 327 319 309 303 301 303 311 314 310 318 316 324 317 306 298 296 289 284 227 207 200 42 100 113 82 337 273 234 222 206 193 186 187 187 190 195 180 188 202 179 207 159 146 150 126 154 220 257 254 268 258 238 272 265 268 311 312 311 310 307 307 304 308 308 75 83 74
186 187 191 174 190 191 200 188 185 202 157 199 227 225 236 277 300 324 328 305 315 321 324 325 326 324 318 313 313 297 289 288 287 292 299 298 306 300 283 266 203 184 202 172 208 219 181 316 306 252 228 211 199 194 202 203 198 193 194 189 208 137 150 150 152 191 200 234 265 261 265 298 303 281 315 304 285 281 290 295 292 297 298 21 95 104 91
196 196 90 135 177 185 163 214 153 184 203 234 247 280 321 330 316 308 328 319 297 298 296 293 295 290 291 291 287 287 282 277 284 291 294 295 284 291 302 286 273 263 245 224 215 229 216 195 223 238 238 232 223 213 210 207 202 202 209 203 215 155 172 152 172 182 195 200 229 234 212 225 239 254 275 288 287 286 264 251 264 292 319 325 114 120 132
198 158 156 154 152 147 165 209 248 171 187 228 277 301 302 316 318 311 305 304 320 308 302 299 290 291 287 277 264 268 269 273 274 274 268 272 281 281 288 310 320 307 286 265 254 247 226 222 214 205 201 271 286 251 225 214 210 209 212 210 222 187 166 170 176 178 192 194 188 208 241 209 217 246 234 224 228 242 262 288 290 280 272 271 273 158 149
188 164 171 159 164 177 164 148 150 160 256 306 303 300 296 305 305 310 304 285 282 285 286 286 292 284 274 273 285 292 296 292 273 264 272 269 260 265 271 276 275 272 268 270 252 252 241 215 188 201 215 203 157 280 322 319 270 242 230 224 214 207 208 204 199 191 203 231 4 104 177 253 253 237 235 252 269 272 257 244 247 259 275 297 312 318 311
175 169 164 166 157 170 161 160 152 190 221 241 243 260 272 279 289 298 308 313 310 304 302 296 287 281 278 289 289 288 288 289 290 287 278 265 259 264 271 268 268 269 258 265 295 293 286 207 173 188 201 206 202 160 142 155 15 342 277 255 252 256 273 269 204 181 129 127 118 108 259 256 243 234 227 229 234 242 239 247 260 272 283 275 282 296 296
171 158 157 155 159 163 168 167 176 228 226 257 283 298 295 298 286 289 284 283 286 290 288 287 285 290 294 282 267 256 250 248 261 276 285 287 287 268 250 243 253 264 278 305 299 283 296 289 175 210 195 206 196 163 145 164 140 128 111 67 58 49 33 349 329 212 177 124 168 192 210 228 240 258 266 251 226 203 224 245 285 301 257 279 306 315 329
166 164 164 165 173 179 183 196 213 198 198 238 282 280 305 308 288 286 293 298 289 285 284 285 288 283 286 289 296 300 305 312 315 315 310 315 291 247 231 234 231 241 242 244 239 247 252 230 219 224 231 223 188 164 154 154 147 138 150 140 147 148 141 181 234 236 219 196 184 84 172 222 245 264 264 265 254 252 241 191 208 225 246 263 286 287 294
169 174 175 175 177 169 191 205 201 185 179 203 243 252 239 259 286 275 266 272 289 290 285 283 283 285 283 283 280 287 295 299 302 295 294 287 297 320 302 289 291 283 258 253 246 144 116 216 250 249 245 181 167 176 155 156 163 187 147 161 173 174 171 186 204 220 232 189 168 180 204 223 244 251 251 243 251 255 238 240 218 198 247 245 238 249 250
172 172 167 174 179 200 189 157 187 227 227 214 225 229 254 275 283 296 306 298 286 281 276 278 277 283 293 308 303 298 295 290 292 297 297 295 300 297 297 286 343 27 26 18 73 89 189 165 197 258 282 314 111 157 148 159 155 145 143 162 201 206 203 195 204 189 174 174 183 201 208 221 234 233 221 233 228 222 245 242 259 272 253 250 267 272 307
167 167 169 179 189 169 182 191 212 226 241 252 246 260 308 311 314 308 307 301 296 296 294 289 289 288 288 281 279 279 279 278 277 275 279 279 281 281 281 309 12 32 29 11 350 327 325 295 247 228 228 229 159 148 144 162 165 179 190 192 193 180 165 186 181 189 183 192 202 211 213 212 209 218 228 180 218 267 213 232 258 270 293 319 324 296 257
158 167 179 184 171 178 177 193 218 227 241 255 351 5 333 304 292 289 291 292 289 282 285 297 297 289 280 276 276 273 276 279 281 282 289 281 277 269 304 354 356 45 64 348 355 339 2 285 280 281 123 114 131 142 148 163 176 187 176 192 189 203 199 194 201 196 180 197 206 207 215 205 198 219 220 180 184 199 213 227 223 237 252 219 206 214 219
163 173 169 175 168 155 208 221 224 273 9 18 345 296 284 276 266 265 269 275 282 289 285 278 279 278 280 279 277 280 284 285 283 289 289 302 300 298 55 57 336 279 168 191 276 296 36 48 58 27 93 110 110 106 112 120 109 89 63 355 49 12 335 278 230 203 206 212 214 221 218 200 211 214 207 204 200 225 244 259 254 246 242 245 246 275 326
163 162 157 140 163 198 193 128 29 4 267 268 277 267 251 262 283 291 287 287 294 293 295 292 285 282 281 285 286 286 282 285 283 279 279 283 297 321 10 350 324 326 95 102 43 34 54 106 112 112 105 107 102 93 91 84 74 67 191 162 75 42 359 294 260 230 220 204 182 226 219 207 158 203 278 251 211 232 269 195 323 15 5 1 0 354 347
162 161 159 180 199 174 141 196 215 235 250 248 256 276 306 310 301 294 293 295 285 281 281 280 276 279 282 281 286 289 289 287 277 318 32 338 31 338 26 108 95 72 68 143 144 113 96 90 95 96 96 89 82 76 64 52 53 60 54 68 100 159 258 263 238 222 221 184 172 205 258 230 229 219 191 204 207 166 193 211 212 206 240 312 304 296 278
162 176 178 176 188 185 201 234 231 241 245 261 282 289 293 299 293 286 283 283 273 267 265 263 265 268 271 275 273 278 296 296 293 290 299 331 56 33 336 308 102 99 88 74 73 95 109 107 102 99 91 80 72 69 98 90 108 113 97 62 42 237 247 278 267 188 132 137 171 192 211 233 249 256 319 304 281 276 287 287 318 322 300 257 259 267 289
173 180 178 173 180 191 204 238 265 244 227 207 253 272 304 291 279 286 295 285 280 279 272 260 245 240 288 302 303 293 315 337 292 312 42 81 105 113 97 95 108 126 121 96 99 104 120 124 125 124 127 129 125 118 117 148 165 128 123 118 131 74 347 322 353 349 11 24 359 340 4 75 296 275 223 247 276 287 320 343 332 311 324 331 286 274 272
175 175 151 162 204 204 214 207 219 212 129 206 228 254 254 246 273 286 265 267 280 288 298 311 328 295 272 255 211 52 8 299 353 42 77 99 118 127 138 137 142 137 74 131 135 126 121 125 133 140 150 168 186 171 121 107 148 141 129 125 111 65 292 312 108 253 267 243 231 219 209 207 263 283 293 288 274 266 270 280 277 128 105 119 271 272 277
171 171 193 198 211 230 185 247 315 66 268 311 300 226 248 251 256 280 288 327 312 302 307 343 343 332 315 328 329 93 217 216 77 36 79 105 103 106 117 129 131 147 138 143 152 156 160 176 159 161 172 195 190 175 186 187 172 133 138 212 229 236 224 235 247 220 222 273 296 286 207 206 220 244 255 252 250 253 250 241 239 245 236 243 236 243 240
173 213 238 212 209 192 210 200 181 192 240 238 255 251 249 255 272 246 177 122 280 304 308 271 256 11 320 308 256 208 225 132 108 116 115 129 129 118 113 127 135 144 167 171 163 178 175 170 167 177 194 212 240 202 190 190 188 196 203 215 215 215 232 228 219 227 217 221 235 252 294 198 216 224 222 226 239 246 241 240 241 240 238 247 247 233 227